OAW9 LSZB-LFSB

Flight info

Callsign OAW9
Flight time 0h 32m
Altitude 10000
Route MEBOX Z142 BALIR/N0277F080 T52 LUMEL
Aircraft A319/M-VGDW/C

Departure

Time 2026-04-20 19:37
Airport Bern Airport (LSZB)

Arrival

Time 2026-04-20 20:10
Airport EuroAirport Basel–Mulhouse–Freiburg (LFSB)
Time Latitude Longitude Altitude Speed Heading
2026-04-20 19:17 46.91273 7.50138 1681 ft 0 kts 96°
2026-04-20 19:29 46.91272 7.50138 1681 ft 0 kts 97°
2026-04-20 19:29 46.91271 7.50143 1681 ft 2 kts 110°
2026-04-20 19:29 46.91268 7.50144 1681 ft 0 kts 133°
2026-04-20 19:30 46.91266 7.50144 1687 ft 0 kts 156°
2026-04-20 19:30 46.91264 7.50141 1686 ft 0 kts 190°
2026-04-20 19:30 46.91259 7.50131 1684 ft 2 kts 228°
2026-04-20 19:30 46.91256 7.50105 1683 ft 4 kts 275°
2026-04-20 19:31 46.91262 7.50056 1681 ft 6 kts 286°
2026-04-20 19:31 46.91296 7.50003 1687 ft 9 kts 321°
2026-04-20 19:31 46.91349 7.49938 1681 ft 11 kts 320°
2026-04-20 19:31 46.91400 7.49876 1685 ft 2 kts 321°
2026-04-20 19:32 46.91409 7.49851 1683 ft 2 kts 268°
2026-04-20 19:32 46.91397 7.49823 1685 ft 4 kts 232°
2026-04-20 19:32 46.91380 7.49792 1680 ft 4 kts 231°
2026-04-20 19:32 46.91382 7.49752 1680 ft 5 kts 315°
2026-04-20 19:33 46.91412 7.49715 1679 ft 7 kts 321°
2026-04-20 19:33 46.91456 7.49668 1679 ft 9 kts 323°
2026-04-20 19:33 46.91507 7.49604 1679 ft 10 kts 317°
2026-04-20 19:33 46.91562 7.49532 1679 ft 11 kts 320°
2026-04-20 19:34 46.91622 7.49460 1684 ft 12 kts 321°
2026-04-20 19:34 46.91690 7.49380 1679 ft 13 kts 320°
2026-04-20 19:34 46.91759 7.49296 1685 ft 13 kts 320°
2026-04-20 19:34 46.91828 7.49209 1684 ft 14 kts 320°
2026-04-20 19:35 46.91902 7.49118 1678 ft 7 kts 319°
2026-04-20 19:35 46.91911 7.49106 1678 ft 3 kts 319°
2026-04-20 19:35 46.91930 7.49072 1678 ft 6 kts 295°
2026-04-20 19:35 46.91957 7.49060 1678 ft 4 kts 72°
2026-04-20 19:36 46.91938 7.49075 1680 ft 3 kts 157°
2026-04-20 19:36 46.91930 7.49084 1680 ft 0 kts 141°
2026-04-20 19:37 46.91896 7.49125 1678 ft 34 kts 140°
2026-04-20 19:37 46.91500 7.49610 1679 ft 111 kts 140°
2026-04-20 19:37 46.90750 7.50531 1727 ft 164 kts 140°
2026-04-20 19:37 46.89897 7.51660 2373 ft 165 kts 135°
2026-04-20 19:38 46.89256 7.53043 3061 ft 167 kts 105°
2026-04-20 19:38 46.89196 7.54703 3844 ft 164 kts 72°
2026-04-20 19:38 46.89817 7.55999 4490 ft 162 kts 42°
2026-04-20 19:38 46.90762 7.57107 4828 ft 186 kts 39°
2026-04-20 19:39 46.91986 7.58004 5129 ft 211 kts 17°
2026-04-20 19:39 46.93549 7.58189 5459 ft 239 kts
2026-04-20 19:39 46.95288 7.58418 5982 ft 262 kts
2026-04-20 19:39 46.97136 7.58765 6793 ft 271 kts
2026-04-20 19:40 46.99043 7.59145 7707 ft 276 kts
2026-04-20 19:40 47.00950 7.59521 8646 ft 281 kts
2026-04-20 19:40 47.02902 7.59893 9567 ft 286 kts
2026-04-20 19:40 47.04891 7.60258 9937 ft 289 kts
2026-04-20 19:41 47.06890 7.60331 10033 ft 286 kts 350°
2026-04-20 19:41 47.08794 7.59598 10056 ft 282 kts 334°
2026-04-20 19:41 47.10470 7.58141 10053 ft 279 kts 319°
2026-04-20 19:41 47.11865 7.56179 10055 ft 278 kts 313°
2026-04-20 19:42 47.13228 7.54161 10056 ft 278 kts 313°
2026-04-20 19:42 47.14594 7.52147 10055 ft 278 kts 313°
2026-04-20 19:42 47.15939 7.50162 10056 ft 278 kts 313°
2026-04-20 19:42 47.17303 7.48153 10056 ft 278 kts 313°
2026-04-20 19:43 47.18670 7.46142 10056 ft 278 kts 313°
2026-04-20 19:43 47.20035 7.44135 10054 ft 277 kts 313°
2026-04-20 19:43 47.21399 7.42126 10055 ft 278 kts 313°
2026-04-20 19:43 47.22764 7.40113 10057 ft 278 kts 313°
2026-04-20 19:44 47.24129 7.38098 10058 ft 278 kts 313°
2026-04-20 19:44 47.25490 7.36087 10060 ft 278 kts 313°
2026-04-20 19:44 47.26849 7.34073 10057 ft 277 kts 313°
2026-04-20 19:44 47.28209 7.32058 10055 ft 277 kts 313°
2026-04-20 19:45 47.29567 7.30042 10058 ft 277 kts 313°
2026-04-20 19:45 47.30929 7.28023 10059 ft 278 kts 314°
2026-04-20 19:45 47.32327 7.26102 10061 ft 278 kts 316°
2026-04-20 19:45 47.33781 7.24223 10068 ft 278 kts 317°
2026-04-20 19:46 47.35252 7.22364 10070 ft 278 kts 317°
2026-04-20 19:46 47.36720 7.20510 10070 ft 278 kts 317°
2026-04-20 19:46 47.38185 7.18648 10071 ft 278 kts 317°
2026-04-20 19:46 47.39641 7.16778 10075 ft 277 kts 316°
2026-04-20 19:47 47.40879 7.14622 10077 ft 275 kts 301°
2026-04-20 19:47 47.41733 7.12103 10075 ft 274 kts 293°
2026-04-20 19:47 47.42509 7.09527 10073 ft 274 kts 293°
2026-04-20 19:47 47.43291 7.06957 10077 ft 275 kts 294°
2026-04-20 19:48 47.44076 7.04391 10077 ft 274 kts 294°
2026-04-20 19:48 47.44861 7.01818 10064 ft 273 kts 294°
2026-04-20 19:48 47.45637 6.99270 9736 ft 271 kts 294°
2026-04-20 19:48 47.46398 6.96766 9364 ft 270 kts 294°
2026-04-20 19:49 47.47319 6.94412 9226 ft 261 kts 308°
2026-04-20 19:49 47.48097 6.93164 9131 ft 255 kts 318°
2026-04-20 19:49 47.49582 6.91814 8957 ft 250 kts 336°
2026-04-20 19:49 47.51221 6.91059 8789 ft 244 kts 342°
2026-04-20 19:50 47.52846 6.90398 8496 ft 242 kts 343°
2026-04-20 19:50 47.54473 6.89812 8181 ft 240 kts 345°
2026-04-20 19:50 47.56109 6.89318 7848 ft 239 kts 348°
2026-04-20 19:50 47.57750 6.88923 7478 ft 239 kts 351°
2026-04-20 19:51 47.59401 6.88632 7156 ft 239 kts 353°
2026-04-20 19:51 47.61052 6.88445 7075 ft 238 kts 356°
2026-04-20 19:51 47.62717 6.88367 7072 ft 241 kts
2026-04-20 19:51 47.64348 6.88904 7080 ft 243 kts 23°
2026-04-20 19:52 47.65753 6.90282 7082 ft 244 kts 44°
2026-04-20 19:52 47.66743 6.92320 7078 ft 246 kts 65°
2026-04-20 19:52 47.67178 6.94726 7072 ft 246 kts 86°
2026-04-20 19:52 47.67004 6.97241 7076 ft 247 kts 107°
2026-04-20 19:53 47.66268 6.99531 7077 ft 247 kts 121°
2026-04-20 19:53 47.65616 7.01886 7082 ft 248 kts 102°
2026-04-20 19:53 47.65415 7.04417 7075 ft 247 kts 94°
2026-04-20 19:53 47.65274 7.06955 7073 ft 247 kts 94°
2026-04-20 19:54 47.65131 7.09499 7077 ft 247 kts 95°
2026-04-20 19:54 47.64843 7.12003 7068 ft 247 kts 113°
2026-04-20 19:54 47.63821 7.14002 7076 ft 246 kts 145°
2026-04-20 19:54 47.62276 7.15047 7080 ft 245 kts 164°
2026-04-20 19:55 47.60636 7.15730 7076 ft 245 kts 166°
2026-04-20 19:55 47.59008 7.16361 7077 ft 245 kts 166°
2026-04-20 19:55 47.57367 7.16984 7069 ft 238 kts 166°
2026-04-20 19:55 47.55755 7.17591 7083 ft 243 kts 166°
2026-04-20 19:56 47.54665 7.17997 7077 ft 245 kts 166°
2026-04-20 19:56 47.52451 7.18818 7084 ft 246 kts 166°
2026-04-20 19:56 47.50791 7.19430 7075 ft 246 kts 166°
2026-04-20 19:56 47.49128 7.20041 7073 ft 247 kts 166°
2026-04-20 19:57 47.47462 7.20648 7073 ft 247 kts 166°
2026-04-20 19:57 47.45794 7.21252 7073 ft 247 kts 166°
2026-04-20 19:57 47.44123 7.21854 7074 ft 247 kts 166°
2026-04-20 19:57 47.42478 7.22443 7068 ft 247 kts 166°
2026-04-20 19:58 47.40809 7.23041 7060 ft 247 kts 166°
2026-04-20 19:58 47.39216 7.23936 7057 ft 246 kts 144°
2026-04-20 19:58 47.38063 7.25777 7059 ft 246 kts 124°
2026-04-20 19:58 47.37123 7.27883 7058 ft 246 kts 121°
2026-04-20 19:59 47.36208 7.30009 7059 ft 246 kts 121°
2026-04-20 19:59 47.35297 7.32141 7059 ft 246 kts 121°
2026-04-20 19:59 47.34390 7.34271 7060 ft 245 kts 121°
2026-04-20 19:59 47.33484 7.36400 7026 ft 244 kts 121°
2026-04-20 20:00 47.32586 7.38507 6715 ft 242 kts 121°
2026-04-20 20:00 47.31692 7.40585 6396 ft 239 kts 121°
2026-04-20 20:00 47.30798 7.42640 6084 ft 237 kts 121°
2026-04-20 20:00 47.29906 7.44669 5813 ft 235 kts 121°
2026-04-20 20:01 47.29016 7.46681 5764 ft 235 kts 122°
2026-04-20 20:01 47.28136 7.48669 5771 ft 236 kts 121°
2026-04-20 20:01 47.27252 7.50700 5755 ft 235 kts 118°
2026-04-20 20:01 47.26843 7.52985 5764 ft 233 kts 86°
2026-04-20 20:02 47.27301 7.55235 5767 ft 232 kts 62°
2026-04-20 20:02 47.28150 7.57246 5770 ft 232 kts 52°
2026-04-20 20:02 47.29167 7.59080 5757 ft 228 kts 50°
2026-04-20 20:02 47.30160 7.60801 5758 ft 213 kts 50°
2026-04-20 20:03 47.31089 7.62403 5756 ft 199 kts 49°
2026-04-20 20:03 47.31980 7.63890 5749 ft 191 kts 44°
2026-04-20 20:03 47.33020 7.65082 5759 ft 190 kts 34°
2026-04-20 20:03 47.34161 7.66060 5765 ft 190 kts 26°
2026-04-20 20:04 47.35372 7.66846 5762 ft 190 kts 24°
2026-04-20 20:04 47.36622 7.67471 5788 ft 191 kts
2026-04-20 20:04 47.37946 7.67388 5776 ft 193 kts 346°
2026-04-20 20:04 47.39181 7.66626 5830 ft 188 kts 336°
2026-04-20 20:05 47.40334 7.65832 5686 ft 180 kts 336°
2026-04-20 20:05 47.41082 7.65317 5539 ft 179 kts 337°
2026-04-20 20:05 47.42572 7.64290 5204 ft 178 kts 337°
2026-04-20 20:05 47.43696 7.63515 4933 ft 178 kts 337°
2026-04-20 20:06 47.44453 7.62992 4732 ft 176 kts 337°
2026-04-20 20:06 47.45899 7.61993 4372 ft 170 kts 337°
2026-04-20 20:06 47.46612 7.61500 4192 ft 165 kts 338°
2026-04-20 20:06 47.47636 7.60792 3946 ft 161 kts 338°
2026-04-20 20:07 47.48640 7.60097 3687 ft 158 kts 338°
2026-04-20 20:07 47.49619 7.59420 3447 ft 157 kts 338°
2026-04-20 20:07 47.50599 7.58741 3202 ft 155 kts 338°
2026-04-20 20:07 47.51578 7.58064 2955 ft 155 kts 338°
2026-04-20 20:08 47.52548 7.57392 2716 ft 153 kts 338°
2026-04-20 20:08 47.53505 7.56728 2472 ft 151 kts 338°
2026-04-20 20:08 47.54459 7.56067 2227 ft 152 kts 337°
2026-04-20 20:08 47.55406 7.55398 1936 ft 149 kts 335°
2026-04-20 20:09 47.56299 7.54742 1725 ft 141 kts 335°
2026-04-20 20:09 47.57177 7.54144 1528 ft 137 kts 337°
2026-04-20 20:09 47.58043 7.53578 1268 ft 135 kts 335°
2026-04-20 20:09 47.58884 7.52980 1075 ft 134 kts 337°
2026-04-20 20:10 47.59719 7.52411 906 ft 128 kts 335°
2026-04-20 20:10 47.60337 7.51987 886 ft 56 kts 334°
2026-04-20 20:10 47.60503 7.51884 882 ft 16 kts
2026-04-20 20:10 47.60559 7.52012 881 ft 11 kts 66°
2026-04-20 20:11 47.60561 7.52018 881 ft 0 kts 65°
2026-04-20 20:13 47.60563 7.52025 881 ft 3 kts 65°
2026-04-20 20:13 47.60570 7.52091 880 ft 10 kts 101°
2026-04-20 20:13 47.60513 7.52155 881 ft 10 kts 155°
2026-04-20 20:14 47.60455 7.52195 884 ft 8 kts 154°
2026-04-20 20:14 47.60412 7.52226 885 ft 6 kts 154°
2026-04-20 20:14 47.60373 7.52253 886 ft 7 kts 154°
2026-04-20 20:14 47.60328 7.52285 886 ft 8 kts 155°
2026-04-20 20:15 47.60271 7.52324 887 ft 10 kts 155°
2026-04-20 20:15 47.60208 7.52368 889 ft 10 kts 155°
2026-04-20 20:15 47.60138 7.52417 889 ft 12 kts 155°
2026-04-20 20:15 47.60050 7.52478 888 ft 15 kts 155°
2026-04-20 20:16 47.59958 7.52539 890 ft 12 kts 155°
2026-04-20 20:16 47.59902 7.52578 890 ft 7 kts 154°
2026-04-20 20:16 47.59856 7.52611 889 ft 8 kts 154°
2026-04-20 20:16 47.59841 7.52667 889 ft 1 kts 84°
2026-04-20 20:17 47.59842 7.52687 888 ft 2 kts 92°
2026-04-20 20:17 47.59840 7.52697 888 ft 0 kts 107°
2026-04-20 20:17 47.59838 7.52707 888 ft 3 kts 105°
2026-04-20 20:17 47.59849 7.52746 888 ft 2 kts 45°
2026-04-20 20:18 47.59870 7.52774 887 ft 1 kts 41°
2026-04-20 20:18 47.59875 7.52780 887 ft 0 kts 41°
2026-04-20 20:20 47.59992 7.52991 887 ft 0 kts 124°